Chester, SC

6:35 AM EST on January 16, 2017 (GMT -0500)
Chester

Weather History for KDCM - February, 2012

Change the Weather History Date:

Wednesday, February 22, 2012

  Actual Average (KUZA) Record (KUZA)
Temperature  
Mean Temperature 54 °F -  
Max Temperature 66 °F 59 °F 73 °F (2011)
Min Temperature 42 °F 38 °F 11 °F (1963)
Degree Days  
Heating Degree Days 11    
Growing Degree Days 4 (Base 50)    
Moisture  
Dew Point 47 °F    
Average Humidity 80    
Maximum Humidity 100    
Minimum Humidity 56    
Precipitation  
Precipitation 0.00 in - - ()
Sea Level Pressure  
Sea Level Pressure 29.84 in    
Wind  
Wind Speed 5 mph (SSW)    
Max Wind Speed 15 mph    
Max Gust Speed 24 mph    
Visibility 9 miles    
Events Rain , Thunderstorm    
Averages and records for this station are not official NWS values.
T = Trace of Precipitation, MM = Missing Value Source: NWS Daily Summary

Daily Weather History Graph

Daily Weather History Graph

Search for Another Location

Airport or City:

Trip Planner

Search our weather history database for the weather conditions in past years. The results will help you decide how hot, cold, wet, or windy it might be!

Date:

Astronomy

Feb. 22, 2012 Rise Set
Actual Time 7:03 AM EST 6:13 PM EST
Civil Twilight 6:37 AM EST 6:39 PM EST
Nautical Twilight 6:08 AM EST 7:08 PM EST
Astronomical Twilight 5:39 AM EST 7:38 PM EST
Moon 7:04 AM EST (2/22) 7:14 PM EST (2/22)
Length of Visible Light 12h 01m
Length of Day
11h 10m
New Moon, 1% of the Moon is Illuminated
Feb 22
New Moon
Feb 29
First Quarter
Mar 8
Full
Mar 14
Last Quarter
Mar 22
New

Hourly Weather History & Observations

Time (EST) Temp. Windchill Dew Point Humidity Pressure Visibility Wind Dir Wind Speed Gust Speed Precip Events Conditions
12:35 AM 46.4 °F 45.2 °F 42.8 °F 87% 30.02 in 10.0 mi SW 3.5 mph - N/A   Clear
1:15 AM 44.6 °F 42.2 °F 42.8 °F 93% 30.02 in 10.0 mi SW 4.6 mph - N/A   Clear
1:35 AM 44.6 °F 43.1 °F 42.8 °F 93% 30.01 in 10.0 mi SW 3.5 mph - N/A   Clear
1:55 AM 44.6 °F 42.2 °F 42.8 °F 93% 30.01 in 10.0 mi SW 4.6 mph - N/A   Clear
2:15 AM 44.6 °F 42.2 °F 42.8 °F 93% 30.00 in 10.0 mi SW 4.6 mph - N/A   Clear
2:35 AM 44.6 °F 43.1 °F 44.6 °F 100% 30.00 in 10.0 mi SSW 3.5 mph - N/A   Clear
2:55 AM 44.6 °F 42.2 °F 44.6 °F 100% 29.99 in 10.0 mi SW 4.6 mph - N/A   Clear
3:15 AM 44.6 °F 43.1 °F 44.6 °F 100% 29.99 in 10.0 mi SW 3.5 mph - N/A   Clear
3:35 AM 44.6 °F - 42.8 °F 93% 29.98 in 10.0 mi Calm Calm - N/A   Clear
3:55 AM 42.8 °F 41.1 °F 42.8 °F 100% 29.97 in 10.0 mi SSW 3.5 mph - N/A   Clear
4:15 AM 42.8 °F 40.1 °F 42.8 °F 100% 29.98 in 10.0 mi SSW 4.6 mph - N/A   Clear
4:35 AM 42.8 °F 41.1 °F 42.8 °F 100% 29.97 in 10.0 mi SSW 3.5 mph - N/A   Clear
4:55 AM 42.8 °F 40.1 °F 42.8 °F 100% 29.97 in 10.0 mi SSW 4.6 mph - N/A   Clear
5:15 AM 42.8 °F 41.1 °F 42.8 °F 100% 29.97 in 10.0 mi SW 3.5 mph - N/A   Clear
5:35 AM 42.8 °F 41.1 °F 42.8 °F 100% 29.97 in 10.0 mi SW 3.5 mph - N/A   Clear
5:55 AM 42.8 °F 41.1 °F 42.8 °F 100% 29.97 in 7.0 mi SW 3.5 mph - N/A   Clear
6:15 AM 42.8 °F 40.1 °F 42.8 °F 100% 29.97 in 7.0 mi SW 4.6 mph - N/A   Clear
6:35 AM 44.6 °F 42.2 °F 44.6 °F 100% 29.97 in 7.0 mi SW 4.6 mph - N/A   Clear
7:35 AM 44.6 °F - 44.6 °F 100% 29.97 in 5.0 mi Calm Calm - N/A   Mostly Cloudy
7:55 AM 46.4 °F 44.3 °F 46.4 °F 100% 29.97 in 7.0 mi SW 4.6 mph - N/A   Mostly Cloudy
8:15 AM 46.4 °F 44.3 °F 46.4 °F 100% 29.97 in 7.0 mi SSW 4.6 mph - N/A   Overcast
8:35 AM 46.4 °F 42.4 °F 46.4 °F 100% 29.97 in 10.0 mi South 8.1 mph - N/A   Overcast
8:55 AM 50.0 °F - 50.0 °F 100% 29.96 in 10.0 mi SSW 6.9 mph - N/A   Overcast
9:55 AM 51.8 °F - 50.0 °F 94% 29.96 in 10.0 mi SW 4.6 mph - N/A   Overcast
10:35 AM 53.6 °F - 51.8 °F 94% 29.94 in 10.0 mi SSW 9.2 mph - N/A   Overcast
10:55 AM 55.4 °F - 51.8 °F 88% 29.93 in 10.0 mi South 5.8 mph - N/A   Overcast
11:15 AM 57.2 °F - 50.0 °F 77% 29.92 in 10.0 mi SW 8.1 mph 16.1 mph N/A   Overcast
11:35 AM 60.8 °F - 50.0 °F 68% 29.92 in 10.0 mi SSW 8.1 mph - N/A   Mostly Cloudy
11:55 AM 60.8 °F - 51.8 °F 72% 29.92 in 10.0 mi SSW 8.1 mph - N/A   Scattered Clouds
12:15 PM 62.6 °F - 50.0 °F 63% 29.90 in 10.0 mi SW 8.1 mph - N/A   Mostly Cloudy
12:35 PM 62.6 °F - 51.8 °F 68% 29.88 in 7.0 mi SSW 9.2 mph 16.1 mph N/A   Mostly Cloudy
12:55 PM 64.4 °F - 51.8 °F 64% 29.87 in 7.0 mi SW 11.5 mph 19.6 mph N/A   Mostly Cloudy
1:15 PM 64.4 °F - 51.8 °F 64% 29.85 in 7.0 mi SSW 11.5 mph 19.6 mph N/A   Scattered Clouds
1:35 PM 62.6 °F - 51.8 °F 68% 29.83 in 7.0 mi SSW 5.8 mph 20.7 mph N/A   Scattered Clouds
1:55 PM 62.6 °F - 51.8 °F 68% 29.82 in 10.0 mi SW 10.4 mph - N/A   Scattered Clouds
2:15 PM 66.2 °F - 50.0 °F 56% 29.80 in 10.0 mi SW 11.5 mph 18.4 mph N/A   Mostly Cloudy
2:35 PM 66.2 °F - 50.0 °F 56% 29.79 in 10.0 mi SSW 15.0 mph 24.2 mph N/A   Scattered Clouds
2:55 PM 64.4 °F - 50.0 °F 59% 29.78 in 7.0 mi SW 13.8 mph 24.2 mph N/A   Scattered Clouds
3:15 PM 64.4 °F - 50.0 °F 59% 29.77 in 5.0 mi South 11.5 mph 19.6 mph N/A   Haze
3:35 PM 64.4 °F - 50.0 °F 59% 29.76 in 7.0 mi SSW 10.4 mph 20.7 mph N/A   Scattered Clouds
3:55 PM 64.4 °F - 48.2 °F 56% 29.75 in 7.0 mi SSW 10.4 mph 18.4 mph N/A   Clear
4:15 PM 64.4 °F - 48.2 °F 56% 29.74 in 7.0 mi SW 9.2 mph - N/A   Clear
4:35 PM 64.4 °F - 48.2 °F 56% 29.73 in 7.0 mi SSW 6.9 mph - N/A   Clear
4:55 PM 64.4 °F - 48.2 °F 56% 29.72 in 7.0 mi WSW 4.6 mph - N/A   Clear
5:15 PM 64.4 °F - 48.2 °F 56% 29.72 in 7.0 mi SW 5.8 mph - N/A   Clear
5:35 PM 62.6 °F - 48.2 °F 59% 29.72 in 7.0 mi SW 4.6 mph - N/A   Clear
5:55 PM 62.6 °F - 48.2 °F 59% 29.71 in 7.0 mi SW 3.5 mph - N/A Thunderstorm Clear
6:15 PM 60.8 °F - 50.0 °F 68% 29.71 in 10.0 mi WSW 3.5 mph - N/A Thunderstorm Clear
6:35 PM 59.0 °F - 50.0 °F 72% 29.72 in 10.0 mi Calm Calm - N/A   Clear
6:55 PM 59.0 °F - 48.2 °F 67% 29.72 in 10.0 mi Calm Calm - N/A   Clear
7:15 PM 55.4 °F - 48.2 °F 77% 29.72 in 10.0 mi Calm Calm - N/A   Clear
7:35 PM 55.4 °F - 48.2 °F 77% 29.71 in 10.0 mi SSW 3.5 mph - N/A   Clear
7:55 PM 53.6 °F - 48.2 °F 82% 29.68 in 10.0 mi South 3.5 mph - N/A   Clear
8:15 PM 53.6 °F - 48.2 °F 82% 29.67 in 10.0 mi South 3.5 mph - N/A   Clear
8:35 PM 53.6 °F - 48.2 °F 82% 29.66 in 7.0 mi South 4.6 mph - N/A   Clear
9:15 PM 53.6 °F - 50.0 °F 88% 29.64 in 10.0 mi South 5.8 mph - N/A Thunderstorm Clear
9:35 PM 55.4 °F - 50.0 °F 82% 29.64 in 10.0 mi South 4.6 mph - N/A   Clear
9:55 PM 55.4 °F - 50.0 °F 82% 29.64 in 10.0 mi South 6.9 mph - N/A   Mostly Cloudy
10:15 PM 55.4 °F - 48.2 °F 77% 29.64 in 10.0 mi South 4.6 mph - N/A   Overcast
10:35 PM 55.4 °F - 46.4 °F 72% 29.65 in 10.0 mi South 4.6 mph - N/A Thunderstorm Thunderstorm
10:55 PM 55.4 °F - 46.4 °F 72% 29.64 in 10.0 mi SSW 8.1 mph - N/A   Scattered Clouds
11:15 PM 55.4 °F - 48.2 °F 77% 29.64 in 10.0 mi South 4.6 mph - N/A Thunderstorm Scattered Clouds
11:35 PM 55.4 °F - 48.2 °F 77% 29.64 in 10.0 mi SSW 6.9 mph - N/A Thunderstorm Thunderstorm
11:55 PM 55.4 °F - 50.0 °F 82% 29.66 in 10.0 mi WSW 4.6 mph - N/A Rain Light Rain